Weather History for Buckland, AK

Change the Weather History Date:

Thursday, February 21, 2013

  Actual Average (PASK) Record (PASK)
Temperature  
Mean Temperature -17 °F -  
Max Temperature -2 °F 6 °F 23 °F (2001)
Min Temperature -32 °F -2 °F -34 °F (2014)
Degree Days  
Heating Degree Days 82    
Moisture  
Dew Point -20 °F    
Average Humidity 64    
Maximum Humidity 100    
Minimum Humidity 35    
Precipitation  
Precipitation 0.00 in - - ()
Sea Level Pressure  
Sea Level Pressure 29.62 in    
Wind  
Wind Speed 1 mph (ESE)    
Max Wind Speed 10 mph    
Max Gust Speed 17 mph    
Visibility 9 miles    
Events      
Averages and records for this station are not official NWS values.
T = Trace of Precipitation, MM = Missing Value Source: NWS Daily Summary

Daily Weather History Graph

Daily Weather History Graph

Search for Another Location

Airport:

Trip Planner

Search our weather history database for the weather conditions in past years. The results will help you decide how hot, cold, wet, or windy it might be!

Date:

Astronomy

Feb. 21, 2013 Rise Set
Actual Time 9:25 AM AKST 6:32 PM AKST
Civil Twilight 8:32 AM AKST 7:25 PM AKST
Nautical Twilight 7:32 AM AKST 8:25 PM AKST
Astronomical Twilight 6:33 AM AKST 9:25 PM AKST
Moon 1:45 PM AKST 7:53 AM AKST
Length of Visible Light 10h 53m
Length of Day
9h 06m
Waxing Gibbous, 85% of the Moon is Illuminated
Feb 21
Waxing Gibbous
Feb 25
Full
Mar 4
Last Quarter
Mar 11
New
Mar 19
First Quarter

Hourly Weather History & Observations

Time (AKST) Temp. Windchill Dew Point Humidity Pressure Visibility Wind Dir Wind Speed Gust Speed Precip Events Conditions
12:16 AM -23.8 °F -35.0 °F - N/A% 29.64 in 10.0 mi ESE 3.5 mph - N/A   Unknown
12:36 AM -27.4 °F - - N/A% 29.64 in 10.0 mi Calm Calm - N/A   Unknown
12:56 AM -20.2 °F - - N/A% 29.64 in 10.0 mi Calm Calm - N/A   Unknown
1:16 AM -25.6 °F - - N/A% 29.64 in 10.0 mi Calm Calm - N/A   Unknown
1:36 AM -27.4 °F - - N/A% 29.64 in 10.0 mi Calm Calm - N/A   Unknown
1:56 AM -25.6 °F - - N/A% 29.65 in 10.0 mi Calm Calm - N/A   Unknown
2:16 AM -29.2 °F - - N/A% 29.65 in 10.0 mi Calm Calm - N/A   Unknown
2:56 AM -25.6 °F - - N/A% 29.64 in 10.0 mi Calm Calm - N/A   Unknown
3:16 AM -27.4 °F - - N/A% 29.64 in 10.0 mi Calm Calm - N/A   Unknown
3:36 AM -29.2 °F - - N/A% 29.64 in 10.0 mi Calm Calm - N/A   Unknown
3:56 AM -27.4 °F -39.2 °F - N/A% 29.64 in 10.0 mi SE 3.5 mph - N/A   Unknown
4:16 AM -27.4 °F - - N/A% 29.64 in 10.0 mi Calm Calm - N/A   Unknown
4:36 AM -29.2 °F - - N/A% 29.64 in 10.0 mi Calm Calm - N/A   Unknown
4:56 AM -29.2 °F - - N/A% 29.64 in 10.0 mi Calm Calm - N/A   Unknown
5:16 AM -31.0 °F - - N/A% 29.64 in 10.0 mi Calm Calm - N/A   Unknown
5:36 AM -29.2 °F - - N/A% 29.64 in 10.0 mi Calm Calm - N/A   Unknown
5:56 AM -31.0 °F - - N/A% 29.63 in 10.0 mi Calm Calm - N/A   Unknown
6:16 AM -27.4 °F - - N/A% 29.63 in 10.0 mi Calm Calm - N/A   Unknown
6:36 AM -29.2 °F - - N/A% 29.63 in 10.0 mi Calm Calm - N/A   Unknown
6:56 AM - - - N/A% 29.62 in 10.0 mi Calm Calm - N/A   Unknown
7:16 AM -29.2 °F - - N/A% 29.63 in 10.0 mi Calm Calm - N/A   Unknown
7:36 AM -31.0 °F - - N/A% 29.62 in 10.0 mi Calm Calm - N/A   Unknown
7:56 AM -32.8 °F - - N/A% 29.62 in 10.0 mi Calm Calm - N/A   Unknown
8:16 AM -32.8 °F - - N/A% 29.62 in 10.0 mi Calm Calm - N/A   Unknown
8:36 AM -31.0 °F - - N/A% 29.61 in 10.0 mi Calm Calm - N/A   Unknown
8:56 AM -32.8 °F -45.3 °F -32.8 °F 100% 29.62 in 10.0 mi SSE 3.5 mph - N/A   Unknown
9:16 AM -32.8 °F -45.3 °F - N/A% 29.62 in 10.0 mi South 3.5 mph - N/A   Unknown
9:36 AM -32.8 °F - - N/A% 29.62 in 10.0 mi Calm Calm - N/A   Unknown
9:56 AM -31.0 °F - - N/A% 29.62 in 10.0 mi Calm Calm - N/A   Unknown
10:16 AM -31.0 °F - - N/A% 29.61 in 10.0 mi Calm Calm - N/A   Unknown
10:36 AM -27.4 °F - - N/A% 29.61 in 10.0 mi Calm Calm - N/A   Unknown
10:56 AM -29.2 °F - - N/A% 29.61 in 2.5 mi Calm Calm - N/A   Unknown
11:16 AM -27.4 °F - - N/A% 29.61 in 8.0 mi Calm Calm - N/A   Unknown
11:36 AM -25.6 °F - - N/A% 29.61 in 2.0 mi Calm Calm - N/A   Unknown
11:56 AM -25.6 °F - - N/A% 29.61 in 10.0 mi Calm Calm - N/A   Unknown
12:16 PM -23.8 °F - - N/A% 29.61 in 2.5 mi Calm Calm - N/A   Unknown
12:36 PM -22.0 °F - -29.2 °F 69% 29.61 in 1.5 mi Calm Calm - N/A   Unknown
12:56 PM -20.2 °F - -23.8 °F 83% 29.61 in 2.0 mi Calm Calm - N/A   Unknown
1:16 PM -20.2 °F - - N/A% 29.61 in 5.0 mi Calm Calm - N/A   Unknown
1:36 PM -18.4 °F - -25.6 °F 70% 29.61 in 10.0 mi Calm Calm - N/A   Unknown
1:56 PM -16.6 °F -31.3 °F -18.4 °F 92% 29.61 in 10.0 mi South 5.8 mph - N/A   Unknown
2:16 PM -14.8 °F - - N/A% 29.61 in 6.0 mi Calm Calm - N/A   Unknown
2:36 PM -14.8 °F - - N/A% 29.60 in 9.0 mi Calm Calm - N/A   Unknown
2:56 PM -7.6 °F -20.6 °F - N/A% 29.60 in 6.0 mi NNE 5.8 mph - N/A   Unknown
3:16 PM -4.0 °F -20.2 °F -25.6 °F 35% 29.59 in 10.0 mi NNE 9.2 mph - N/A   Unknown
3:36 PM -2.2 °F - -2.2 °F 100% 29.59 in 10.0 mi Calm Calm - N/A   Unknown
3:56 PM -2.2 °F -18.9 °F -16.6 °F 50% 29.59 in 10.0 mi NNE 10.4 mph - N/A   Unknown
4:16 PM -2.2 °F -16.8 °F -5.8 °F 85% 29.58 in 10.0 mi ENE 8.1 mph 17.3 mph N/A   Unknown
4:36 PM -2.2 °F -10.4 °F -16.6 °F 50% 29.59 in 10.0 mi ESE 3.5 mph - N/A   Unknown
4:56 PM -2.2 °F -12.5 °F -13.0 °F 60% 29.59 in 10.0 mi East 4.6 mph - N/A   Unknown
5:16 PM -2.2 °F - -14.8 °F 55% 29.59 in 10.0 mi Calm Calm - N/A   Unknown
5:36 PM -2.2 °F -10.4 °F -14.8 °F 55% 29.59 in 10.0 mi North 3.5 mph - N/A   Unknown
5:56 PM -4.0 °F -12.4 °F -14.8 °F 60% 29.59 in 10.0 mi WNW 3.5 mph - N/A   Unknown
6:16 PM -4.0 °F -16.3 °F -14.8 °F 60% 29.59 in 10.0 mi NNE 5.8 mph - N/A   Unknown
6:36 PM -4.0 °F -20.2 °F -16.6 °F 55% 29.60 in 10.0 mi NNE 9.2 mph - N/A   Unknown
6:56 PM -4.0 °F -19.0 °F -16.6 °F 55% 29.60 in 10.0 mi ESE 8.1 mph - N/A   Unknown
7:16 PM -5.8 °F - -18.4 °F 55% 29.60 in 10.0 mi Calm Calm - N/A   Unknown
7:36 PM -7.6 °F -22.1 °F -18.4 °F 59% 29.60 in 10.0 mi West 6.9 mph - N/A   Unknown
7:56 PM -14.8 °F -27.2 °F -29.2 °F 48% 29.61 in 10.0 mi SSW 4.6 mph - N/A   Unknown
8:16 PM -9.4 °F - -20.2 °F 59% 29.61 in 10.0 mi Calm Calm - N/A   Unknown
8:36 PM -9.4 °F - -23.8 °F 49% 29.61 in 10.0 mi Calm Calm - N/A   Unknown
8:56 PM -13.0 °F - -22.0 °F 64% 29.61 in 10.0 mi Calm Calm - N/A   Unknown
9:16 PM -14.8 °F -27.2 °F -27.4 °F 53% 29.61 in 10.0 mi SW 4.6 mph - N/A   Unknown
9:56 PM -14.8 °F - -25.6 °F 58% 29.62 in 10.0 mi Calm Calm - N/A   Unknown
10:16 PM -16.6 °F - -25.6 °F 64% 29.62 in 10.0 mi Calm Calm - N/A   Unknown
10:36 PM -18.4 °F -31.4 °F - N/A% 29.62 in 10.0 mi South 4.6 mph - N/A   Unknown
10:56 PM -23.8 °F -39.8 °F - N/A% 29.63 in 10.0 mi SSE 5.8 mph - N/A   Unknown
11:16 PM -23.8 °F - - N/A% 29.63 in 10.0 mi Calm Calm - N/A   Unknown
11:36 PM -23.8 °F - -29.2 °F 76% 29.63 in 10.0 mi Calm Calm - N/A   Unknown
11:56 PM -22.0 °F - - N/A% 29.63 in 10.0 mi Calm Calm - N/A   Unknown